NOAA 16 DEB

Satellite information

Favourite Embed

Satellite Type and Status

DEBRISIN ORBIT

Key statistics

Satellite NOAA 16 DEB at a glance.

Uptime

9215

Days in orbit

Revolutions

≈ 14.3

Per day

Orbit

SSO

Sun Synchronous Orbit

Inclination

98.7

Latest

Satellite identification and parameters

Extended collection of information and parameters for NOAA 16 DEB.

Object identification

Identified? True

Debris? True

Object name: NOAA 16 DEB

International designator: 2000-055EH

Object number (NORAD): 41228

Object ID (CCSDS): 41228

Country: UNITED STATES OF AMERICA (US)

Current information (Y/N): Y

RCS size: SMALL

Orbital parameters

Period: 100.725 minutes

Inclination: 98.7309 deg

SMA: 7171.089 km

Apoapsis: 807.02 km

Periapsis: 778.889 km

RAAN: 66.7963 deg

Eccentricy: 0.00196144

Argument of periapsis: 208.0129 deg

Mean anomaly: 151.9998 deg

Mean motion: 14.29634689 rev/day

Mean motion (dot): 0.00007821 rev/day2

B* drag term: 0.0030616023 1/REarth

Two-line elements (TLE)

Creation date: Dec. 13, 2025, 5:47 p.m.

Reference frame: TEME

Reference center: EARTH

Epoch: Dec. 13, 2025, 4:40 a.m. UTC

TLE line 0: 0 NOAA 16 DEB

TLE line 1: 1 41228U 00055EH 25347.19466561 .00007821 00000-0 30616-2 0 9992

TLE line 2: 2 41228 98.7309 66.7963 0019614 208.0129 151.9998 14.29634689516371

Live tracking on map

Real-time ground track for satellite NOAA 16 DEB.

In-orbit conjunctions

A list of the most updated potential collisions computed for object NOAA 16 DEB.

Target Orbit TCA Probability of collision Miss distance Type
METEOR 2-8 DEB LEO 2025-07-13 12:04:17 0.000652116 63.0 (m) DEBRIS
CZ-6A R/B DEB LEO 2025-05-05 11:39:23 0.0001308376 350.0 (m) DEBRIS

Associated space launch

The NOAA K, L and M POES satellites begin the fifth generation of improved environmental monitoring in support of NOAA missions. The instrument payload has significant improvements and additions/deletions. The instrument changes have effected the spacecraft subsystems and data formats.

NOAA 16 DEB was lifted into orbit during the mission ‘Titan II SLV | NOAA 16’, on board a Titan II SLV space rocket.

The launch took place on Sept. 21, 2000, 10:22 a.m. from Space Launch Complex 4W.

For more information about the launch, click the button.

Launch to space Titan II SLV | NOAA 16
Titan II SLV | NOAA 16

Agency: N/A

Status: Launch Successful

Launch date: Sept. 21, 2000, 10:22 a.m. UTC

Rocket: Titan II SLV

Launch pad: Space Launch Complex 4W

Location: Vandenberg SFB, CA, USA

...

Latest news about this satellite

There are no fresh news available about this satellite. Check back as we update our databases every day.


Newsletter sign-up

Weekly statistics, charts and insights to help you stay on top of the space industry.